Tracking 30743 objects as of 21-Jun-2025
HD Live streaming from Space Station
objects crossing your sky now

NOAA 16 DEB

Track NOAA 16 DEB now!
10-day predictions


NORAD ID: 42365
Int'l Code: 2000-055RH
Perigee: 712.8 km
Apogee: 773.1 km
Inclination: 99.0 °
Period: 99.5 minutes
Semi major axis: 7113 km
RCS: Unknown
Launch date: September 21, 2000
Source: United States (US)
Launch site: AIR FORCE WESTERN TEST RANGE (AFWTR)

Note: This is SATELLITE DEBRIS
Your satellite tracking list
Your tracking list is empty




NASA's NSSDC Master Catalog

Two Line Element Set (TLE):
1 42365U 00055RH  25171.47341399  .00005629  00000-0  15463-2 0  9999
2 42365  98.9867 354.0240 0042378 124.0367 236.4859 14.46898043486297
Source of the keplerian elements: AFSPC